Regional Weather Roundup
Issued by NWS

Home | Current Version | Previous Version | Graphics & Text | Print | Product List | Glossary On
Versions: 1 2 3 4 5 6 7 8 9 10 11 12 13 14 15 16 17 18 19 20 21 22 23 24 25 26 27 28 29 30 31 32 33 34 35 36 37 38 39 40 41 42 43 44 45 46 47 48 49 50
000
ASUS43 KLMK 242102
RWRKY
KENTUCKY REGIONAL WEATHER ROUNDUP
NATIONAL WEATHER SERVICE LOUISVILLE KY
500 PM EDT MON APR 24 2017

NOTE "FAIR" INDICATES FEW OR NO CLOUDS BELOW 12,000 FEET
WITH NO SIGNIFICANT WEATHER AND/OR OBSTRUCTIONS TO VISIBILITY.

KYZ001>023-026-027-061>063-070>075-242200-
WESTERN AND SOUTH CENTRAL KENTUCKY

CITY           SKY/WX    TMP DP  RH WIND       PRES   REMARKS
PADUCAH        SUNNY     76  47  35 N7        29.77F
HENDERSON      SUNNY     74  43  32 NW8       29.79F
OWENSBORO      SUNNY     76  49  38 N3        29.78F
HOPKINSVILLE   PTSUNNY   70  53  55 E5        29.79F
BOWLING GREEN  CLOUDY    72  55  55 NE3       29.79F
GLASGOW        NOT AVBL
$$

KYZ024-025-028>034-038-045-046-053-242200-
NORTH CENTRAL KENTUCKY

CITY           SKY/WX    TMP DP  RH WIND       PRES   REMARKS
LOUISVILLE/SDF CLOUDY    77  51  40 E13       29.77F
LOUISVILLE/LOU CLOUDY    75  51  43 NE9       29.78F
FORT KNOX      PTSUNNY   73  52  47 E8        29.76F
$$

KYZ035>037-039>044-047>052-055>060-089>105-242200-
NORTHEAST KENTUCKY

CITY           SKY/WX    TMP DP  RH WIND       PRES   REMARKS
LEXINGTON      CLOUDY    67  52  58 E14       29.81S
COVINGTON      PTSUNNY   72  52  49 E16       29.81F
FRANKFORT      CLOUDY    69  51  52 E10       29.79S
$$

KYZ054-064>069-076>088-106>120-242200-
SOUTHEAST KENTUCKY

CITY           SKY/WX    TMP DP  RH WIND       PRES   REMARKS
JACKSON        CLOUDY    64  52  64 VRB5      29.81F
LONDON         CLOUDY    66  52  60 VRB3      29.78F
SOMERSET       CLOUDY    64  52  63 E5        29.79S
MIDDLESBORO    PTSUNNY   66  55  66 N8        29.77F
MONTICELLO     CLOUDY    67  55  65 N16       29.80S
$$





USA.gov is the U.S. government's official web portal to all federal, state and local government web resources and services.